KD2BVA Weather Reports


Display with metric or nautical units.
time (UTC)temp
F
wind
direction
speed
MPH
gust
MPH
rain 1hr
in
rain 24hr
in
rain mn
in
humidity
%
barometer
mb
20260505204558 73 136 2.0 5.0 0.00 0.02 0.02 60 989.7
20260505204046 73 274 1.0 5.0 0.01 0.02 0.02 61 989.2
20260505203555 73 278 1.0 4.0 0.01 0.02 0.02 64 989.0
20260505203041 72 191 2.0 4.0 0.02 0.02 0.02 66 989.0
20260505202549 70 343 1.0 4.0 0.02 0.02 0.02 67 989.0
20260505202057 69 247 0.0 2.0 0.02 0.02 0.02 76 988.9
20260505201545 67 266 0.0 2.0 0.02 0.02 0.02 75 988.9
20260505201048 66 96 0.0 2.0 0.02 0.02 0.02 78 988.9
20260505200601 65 125 0.0 4.0 0.02 0.02 0.02 76 988.8
20260505200047 66 61 1.0 5.0 0.02 0.02 0.02 75 989.1
20260505195555 66 300 1.0 11.0 0.02 0.02 0.02 75 989.9
20260505195043 66 304 3.0 12.0 0.02 0.02 0.02 74 990.3
20260505194528 67 227 4.0 12.0 0.02 0.02 0.02 74 990.4
20260505194039 68 197 4.0 11.0 0.01 0.01 0.01 69 990.4
20260505193528 69 214 4.0 11.0 0.01 0.01 0.01 65 990.2
20260505193024 70 97 2.0 10.0 0.00 0.00 0.00 61 990.0
20260505192535 71 153 2.0 14.0 0.00 0.00 0.00 59 989.3
20260505192044 73 272 4.0 19.0 0.00 0.00 0.00 57 989.5
20260505191525 76 262 5.0 19.0 0.00 0.00 0.00 49 989.5
20260505191034 79 104 4.0 14.0 0.00 0.00 0.00 40 988.3
20260505190526 79 293 4.0 9.0 0.00 0.00 0.00 37 987.8
20260505190034 79 279 2.0 8.0 0.00 0.00 0.00 39 987.5
20260505185543 79 232 3.0 8.0 0.00 0.00 0.00 42 987.5
20260505185022 78 223 2.0 9.0 0.00 0.00 0.00 42 987.4
20260505184530 79 246 1.0 9.0 0.00 0.00 0.00 45 987.5
20260505184020 79 338 2.0 7.0 0.00 0.00 0.00 45 987.4
20260505183531 79 227 1.0 12.0 0.00 0.00 0.00 45 987.4
20260505183031 79 148 2.0 12.0 0.00 0.00 0.00 44 987.4
20260505182520 79 309 1.0 8.0 0.00 0.00 0.00 44 987.5
20260505182046 80 135 2.0 10.0 0.00 0.00 0.00 42 987.6
20260505181527 81 155 1.0 9.0 0.00 0.00 0.00 41 987.6
20260505181038 82 261 2.0 9.0 0.00 0.00 0.00 43 987.5
20260505180550 81 218 2.0 9.0 0.00 0.00 0.00 45 987.5
20260505180029 81 260 1.0 9.0 0.00 0.00 0.00 41 987.7
20260505175539 82 261 2.0 7.0 0.00 0.00 0.00 42 987.8
20260505175048 81 212 2.0 5.0 0.00 0.00 0.00 43 987.9
20260505174534 81 44 1.0 7.0 0.00 0.00 0.00 43 988.1
20260505174031 81 238 2.0 9.0 0.00 0.00 0.00 41 988.1
20260505173522 82 307 2.0 10.0 0.00 0.00 0.00 40 988.3
20260505173032 81 88 2.0 14.0 0.00 0.00 0.00 41 988.4
20260505172534 82 223 4.0 14.0 0.00 0.00 0.00 40 988.3
20260505172023 83 214 4.0 12.0 0.00 0.00 0.00 39 988.3
20260505171524 82 320 1.0 8.0 0.00 0.00 0.00 45 988.4
20260505171035 82 226 3.0 12.0 0.00 0.00 0.00 41 988.6
20260505170527 81 248 3.0 12.0 0.00 0.00 0.00 42 988.6
20260505170022 81 235 4.0 12.0 0.00 0.00 0.00 43 988.6
20260505165533 81 229 1.0 16.0 0.00 0.00 0.00 42 988.8
20260505165024 82 338 4.0 16.0 0.00 0.00 0.00 40 988.8
20260505164524 82 229 3.0 15.0 0.00 0.00 0.00 41 989.0
20260505164035 82 270 2.0 9.0 0.00 0.00 0.00 43 989.1
20260505163547 82 139 3.0 12.0 0.00 0.00 0.00 44 989.2
20260505163054 81 299 3.0 12.0 0.00 0.00 0.00 43 989.2
20260505162605 81 24 2.0 9.0 0.00 0.00 0.00 45 989.3
20260505162043 80 240 2.0 7.0 0.00 0.00 0.00 46 989.5
20260505161603 80 255 2.0 12.0 0.00 0.00 0.00 43 989.5
20260505161041 80 221 3.0 12.0 0.00 0.00 0.00 44 989.7
20260505160548 79 189 2.0 8.0 0.00 0.00 0.00 45 989.8
20260505153024 75 241 3.0 7.0 0.00 0.00 0.00 51 990.6
20260505152525 75 353 2.0 7.0 0.00 0.00 0.00 54 990.7
20260505152035 74 233 1.0 8.0 0.00 0.00 0.00 54 990.6
20260505151525 73 209 4.0 11.0 0.00 0.00 0.00 53 990.8
20260505151022 73 288 1.0 11.0 0.00 0.00 0.00 55 990.9
20260505150534 72 115 3.0 11.0 0.00 0.00 0.00 53 990.7
20260505140556 65 290 1.0 6.0 0.00 0.00 0.00 64 992.1
20260505124528 62 98 2.0 9.0 0.00 0.00 0.00 68 992.0
20260505124039 61 139 3.0 9.0 0.00 0.00 0.00 68 992.0
20260505123548 61 212 1.0 11.0 0.00 0.00 0.00 69 991.9
20260505123027 61 209 3.0 8.0 0.00 0.00 0.00 69 991.9
20260505122538 61 217 2.0 8.0 0.00 0.00 0.00 70 991.9
20260505122046 60 107 1.0 8.0 0.00 0.00 0.00 71 991.9
20260505091533 47 91 0.0 0.0 0.00 0.00 0.00 91 991.5
20260505091043 47 91 0.0 0.0 0.00 0.00 0.00 91 991.5
20260505090533 47 91 0.0 0.0 0.00 0.00 0.00 91 991.6
20260505090042 47 91 0.0 0.0 0.00 0.00 0.00 92 991.6
20260505085547 47 91 0.0 0.0 0.00 0.00 0.00 92 991.6
20260505085025 46 91 0.0 0.0 0.00 0.00 0.00 92 991.6
20260505084545 46 91 0.0 0.0 0.00 0.00 0.00 92 991.6
20260505084027 46 91 0.0 0.0 0.00 0.00 0.00 92 991.7
20260505083538 46 91 0.0 0.0 0.00 0.00 0.00 92 991.7
20260505083025 46 91 0.0 0.0 0.00 0.00 0.00 92 991.7
20260505082532 45 91 0.0 0.0 0.00 0.00 0.00 92 991.7
20260505082042 45 91 0.0 0.0 0.00 0.00 0.00 92 991.8
20260505081531 45 91 0.0 0.0 0.00 0.00 0.00 92 991.8
20260505081034 45 91 0.0 0.0 0.00 0.00 0.00 92 991.7
20260505080535 45 91 0.0 0.0 0.00 0.00 0.00 92 991.8
20260505080023 45 91 0.0 0.0 0.00 0.00 0.00 93 991.8
20260505075523 45 91 0.0 0.0 0.00 0.00 0.00 93 991.7
20260505075033 44 91 0.0 0.0 0.00 0.00 0.00 92 991.7
20260505074524 44 91 0.0 0.0 0.00 0.00 0.00 92 991.7
20260505074025 44 91 0.0 0.0 0.00 0.00 0.00 92 991.7
20260505073536 44 91 0.0 0.0 0.00 0.00 0.00 92 991.7
20260505073025 44 91 0.0 0.0 0.00 0.00 0.00 92 991.7
20260505072523 44 91 0.0 0.0 0.00 0.00 0.00 92 991.7
20260505072032 44 91 0.0 0.0 0.00 0.00 0.00 92 991.7
20260505071523 44 91 0.0 0.0 0.00 0.00 0.00 91 991.7
20260505071023 44 91 0.0 0.0 0.00 0.00 0.00 91 991.7
20260505070534 44 91 0.0 0.0 0.00 0.00 0.00 91 991.7
20260505070043 44 91 0.0 0.0 0.00 0.00 0.00 91 991.7
20260505065523 44 91 0.0 0.0 0.00 0.00 0.00 92 991.7
20260505065033 44 91 0.0 0.0 0.00 0.00 0.00 91 991.7
20260505064544 44 91 0.0 0.0 0.00 0.00 0.00 90 991.8
20260505064026 45 91 0.0 0.0 0.00 0.00 0.00 89 991.7
20260505063533 45 91 0.0 0.0 0.00 0.00 0.00 90 991.8
20260505063041 45 91 0.0 0.0 0.00 0.00 0.00 89 991.8
20260505062520 45 91 0.0 0.0 0.00 0.00 0.00 89 991.8
20260505062030 46 91 0.0 0.0 0.00 0.00 0.00 89 991.7
20260505061532 46 91 0.0 0.0 0.00 0.00 0.00 89 991.7
20260505061022 46 91 0.0 0.0 0.00 0.00 0.00 89 991.8
20260505060534 46 91 0.0 0.0 0.00 0.00 0.00 88 991.9
20260505060105 46 91 0.0 0.0 0.00 0.00 0.00 88 991.8
20260505055554 46 91 0.0 0.0 0.00 0.00 0.00 88 991.7
20260505055103 46 91 0.0 0.0 0.00 0.00 0.00 88 991.8
20260505054541 46 91 0.0 0.0 0.00 0.00 0.00 87 991.8
20260505054049 46 91 0.0 0.0 0.00 0.00 0.00 87 991.8
20260505053607 46 91 0.0 0.0 0.00 0.00 0.00 86 991.8
20260505053045 46 91 0.0 0.0 0.00 0.00 0.00 86 991.8
20260505052552 46 91 0.0 0.0 0.00 0.00 0.00 86 991.8
20260505052040 46 91 0.0 0.0 0.00 0.00 0.00 86 991.8
20260505051548 47 91 0.0 0.0 0.00 0.00 0.00 86 991.8
20260505051057 47 91 0.0 0.0 0.00 0.00 0.00 86 991.8
20260505050548 47 91 0.0 0.0 0.00 0.00 0.00 86 991.8
20260505041525 47 91 0.0 0.0 0.00 0.00 0.00 85 991.7
20260505041026 48 91 0.0 0.0 0.00 0.00 0.00 85 991.7
20260505040537 48 91 0.0 0.0 0.00 0.00 0.00 85 991.7
20260505040042 48 91 0.0 0.0 0.00 0.00 0.00 85 991.6
20260505035522 48 91 0.0 0.0 0.00 0.00 0.00 85 991.6
20260505035033 48 91 0.0 0.0 0.00 0.00 0.00 85 991.6
20260505034543 48 91 0.0 0.0 0.00 0.00 0.00 84 991.5
20260505034023 48 91 0.0 0.0 0.00 0.00 0.00 84 991.4
20260505033534 48 91 0.0 0.0 0.00 0.00 0.00 84 991.4
20260505033043 49 91 0.0 0.0 0.00 0.00 0.00 84 991.4
20260505032523 49 91 0.0 0.0 0.00 0.00 0.00 84 991.4
20260505032035 49 91 0.0 0.0 0.00 0.00 0.00 84 991.4
20260505031541 49 91 0.0 0.0 0.00 0.00 0.00 83 991.3
20260505031038 49 91 0.0 0.0 0.00 0.00 0.00 83 991.3
20260505030030 49 91 0.0 0.0 0.00 0.00 0.00 83 991.3
20260505025539 50 91 0.0 0.0 0.00 0.00 0.00 81 991.3
20260505025047 50 91 0.0 0.0 0.00 0.00 0.00 80 991.3
20260505024556 50 91 0.0 0.0 0.00 0.00 0.00 79 991.3
20260505024043 50 91 0.0 0.0 0.00 0.00 0.00 78 991.4
20260505023552 51 91 0.0 0.0 0.00 0.00 0.00 78 991.4
20260505023101 51 91 0.0 0.0 0.00 0.00 0.00 77 991.5
20260505022547 51 91 0.0 0.0 0.00 0.00 0.00 77 991.5
20260505022051 51 91 0.0 0.0 0.00 0.00 0.00 75 991.5
20260505021600 51 91 0.0 0.0 0.00 0.00 0.00 73 991.5
20260505021046 52 91 0.0 0.0 0.00 0.00 0.00 72 991.5
20260505020555 52 91 0.0 0.0 0.00 0.00 0.00 71 991.6
20260505020041 52 91 0.0 0.0 0.00 0.00 0.00 71 991.6
20260505015549 52 91 0.0 0.0 0.00 0.00 0.00 70 991.5
20260505015058 53 91 0.0 0.0 0.00 0.00 0.00 70 991.5
20260505014546 53 91 0.0 0.0 0.00 0.00 0.00 69 991.5
20260505014027 53 91 0.0 0.0 0.00 0.00 0.00 69 991.4
20260505013534 53 91 0.0 0.0 0.00 0.00 0.00 69 991.4
20260505013033 54 91 0.0 0.0 0.00 0.00 0.00 68 991.4
20260505012522 54 91 0.0 0.0 0.00 0.00 0.00 67 991.3
20260505012032 54 91 0.0 0.0 0.00 0.00 0.00 67 991.3
20260505011534 55 91 0.0 0.0 0.00 0.00 0.00 66 991.3
20260505011023 55 91 0.0 0.0 0.00 0.00 0.00 64 991.3
20260505010536 55 91 0.0 0.0 0.00 0.00 0.00 64 991.3
20260505010034 56 91 0.0 0.0 0.00 0.00 0.00 63 991.2
20260505005523 56 91 0.0 0.0 0.00 0.00 0.00 61 991.1
20260505005022 57 91 0.0 0.0 0.00 0.00 0.00 61 991.0
20260505004533 57 91 0.0 0.0 0.00 0.00 0.00 61 990.9
20260505004022 58 91 0.0 0.0 0.00 0.00 0.00 60 990.9
20260505003524 58 91 0.0 0.0 0.00 0.00 0.00 59 990.9
20260505003032 59 91 0.0 0.0 0.00 0.00 0.00 58 990.9
20260505002541 59 91 0.0 0.0 0.00 0.00 0.00 56 990.8
20260505002041 60 91 0.0 0.0 0.00 0.00 0.00 55 990.8
20260505001539 61 91 0.0 0.0 0.00 0.00 0.00 52 990.8
20260505001028 62 91 0.0 0.0 0.00 0.00 0.00 51 990.8
20260505000527 63 91 0.0 0.0 0.00 0.00 0.00 50 990.7
20260505000035 64 91 0.0 0.0 0.00 0.00 0.00 49 990.7
20260504235524 65 91 0.0 0.0 0.00 0.00 0.00 48 990.7
20260504235025 65 91 0.0 0.0 0.00 0.00 0.00 46 990.6
20260504234534 66 91 0.0 0.0 0.00 0.00 0.00 46 990.6
20260504234022 67 91 0.0 0.0 0.00 0.00 0.00 45 990.6
20260504233524 67 91 0.0 0.0 0.00 0.00 0.00 44 990.5
20260504233031 68 91 0.0 0.0 0.00 0.00 0.00 42 990.5
20260504232542 68 91 0.0 1.0 0.00 0.00 0.00 42 990.5
20260504232023 69 95 0.0 5.0 0.00 0.00 0.00 41 990.4
20260504231534 70 25 0.0 5.0 0.00 0.00 0.00 40 990.4
20260504231043 70 320 0.0 5.0 0.00 0.00 0.00 39 990.4
20260504230526 71 245 0.0 6.0 0.00 0.00 0.00 39 990.3
20260504230035 71 224 1.0 8.0 0.00 0.00 0.00 38 990.2
20260504225545 72 198 2.0 8.0 0.00 0.00 0.00 37 990.1
20260504225023 72 255 1.0 6.0 0.00 0.00 0.00 38 990.0
20260504224534 72 240 2.0 7.0 0.00 0.00 0.00 37 990.0
20260504224043 72 248 3.0 7.0 0.00 0.00 0.00 37 990.0
20260504223526 72 232 1.0 8.0 0.00 0.00 0.00 37 989.9
20260504223030 72 223 2.0 8.0 0.00 0.00 0.00 37 990.0
20260504222531 72 263 1.0 7.0 0.00 0.00 0.00 36 990.0
20260504222021 72 223 1.0 6.0 0.00 0.00 0.00 38 990.1
20260504221532 73 238 1.0 8.0 0.00 0.00 0.00 37 990.0
20260504221032 73 248 2.0 8.0 0.00 0.00 0.00 35 990.0
20260504220524 74 229 2.0 8.0 0.00 0.00 0.00 35 990.0
20260504220048 74 359 2.0 7.0 0.00 0.00 0.00 34 990.0
20260504215530 74 248 3.0 11.0 0.00 0.00 0.00 35 989.9
20260504215019 74 221 3.0 10.0 0.00 0.00 0.00 33 989.9
20260504214520 75 290 2.0 9.0 0.00 0.00 0.00 35 989.9
20260504214029 75 253 2.0 9.0 0.00 0.00 0.00 35 990.0
20260504213540 74 203 2.0 10.0 0.00 0.00 0.00 36 990.0
20260504213047 74 93 3.0 10.0 0.00 0.00 0.00 34 990.1
20260504212528 74 22 2.0 8.0 0.00 0.00 0.00 37 990.0
20260504212037 73 219 1.0 10.0 0.00 0.00 0.00 35 990.0
20260504211538 74 89 3.0 10.0 0.00 0.00 0.00 35 990.1
20260504211026 74 304 2.0 13.0 0.00 0.00 0.00 34 990.0
20260504210547 74 243 5.0 13.0 0.00 0.00 0.00 33 990.1
20260504210026 74 214 2.0 7.0 0.00 0.00 0.00 34 990.0
20260504205532 74 266 1.0 5.0 0.00 0.00 0.00 34 990.1
20260504205032 74 262 1.0 10.0 0.00 0.00 0.00 35 990.1